Saint Simons Island, GA

5:47 PM EST on December 05, 2019 (GMT -0500)
McKinnon

Weather History for KSSI - November, 2019

Change the Weather History Date:

Tuesday, November 12, 2019

  Actual Average Record
Temperature  
Mean Temperature 64 °F 63 °F  
Max Temperature 81 °F 71 °F 82 °F (1966)
Min Temperature 47 °F 54 °F 36 °F (1987)
Degree Days  
Heating Degree Days 1 4  
Month to date heating degree days 41 40  
Since 1 July heating degree days 41 70  
Cooling Degree Days 0 2  
Month to date cooling degree days 25 29  
Year to date cooling degree days 3370 2590  
Growing Degree Days 14 (Base 50)    
Moisture  
Dew Point 56 °F    
Average Humidity 74    
Maximum Humidity 97    
Minimum Humidity 51    
Precipitation  
Precipitation 0.12 in 0.07 in 1.37 in (1992)
Month to date precipitation 0.49 0.91  
Year to date precipitation 32.95 41.24  
Snow  
Snow 0.00 in - 0.00 in ()
Month to date snowfall 0.0  
Since 1 July snowfall 0.0  
Since 1 September snowfall 0.0  
Snow Depth 0.00 in    
Sea Level Pressure  
Sea Level Pressure 29.97 in    
Wind  
Wind Speed 9 mph (WNW)    
Max Wind Speed 24 mph    
Max Gust Speed 31 mph    
Visibility 8 miles    
Events Rain    
T = Trace of Precipitation, MM = Missing Value Source: NWS Daily Summary

Daily Weather History Graph

Daily Weather History Graph

Search for Another Location

Airport or City:

Astronomy

Nov. 12, 2019 Rise Set
Actual Time 6:49 AM EST 5:29 PM EST
Civil Twilight 6:24 AM EST 5:54 PM EST
Nautical Twilight 5:55 AM EST 6:23 PM EST
Astronomical Twilight 5:26 AM EST 6:52 PM EST
Moon 5:53 PM EST (11/12) 6:43 AM EST (11/12)
Length of Visible Light 11h 30m
Length of Day
10h 39m
Full, 100% of the Moon is Illuminated
Nov 12
Full
Nov 19
Last Quarter
Nov 26
New
Dec 4
First Quarter
Dec 12
Full

Hourly Weather History & Observations

Time (EST) Temp. Heat Index Dew Point Humidity Pressure Visibility Wind Dir Wind Speed Gust Speed Precip Events Conditions
12:53 AM 60.1 °F - 55.9 °F 86% 30.04 in 10.0 mi Calm Calm - N/A   Clear
1:53 AM 59.0 °F - 55.9 °F 90% 30.01 in 10.0 mi Calm Calm - N/A   Clear
2:53 AM 57.9 °F - 55.9 °F 93% 29.98 in 5.0 mi Calm Calm - N/A   Clear
3:53 AM 57.9 °F - 55.0 °F 90% 29.95 in 8.0 mi Calm Calm - N/A   Clear
4:53 AM 57.0 °F - 54.0 °F 89% 29.93 in 10.0 mi South 4.6 mph - N/A   Clear
5:53 AM 62.1 °F - 61.0 °F 96% 29.93 in 10.0 mi SSW 4.6 mph - N/A   Clear
6:53 AM 61.0 °F - 59.0 °F 93% 29.93 in 5.0 mi Calm Calm - N/A   Clear
7:53 AM 64.9 °F - 62.1 °F 90% 29.94 in 10.0 mi South 3.5 mph - N/A   Clear
8:53 AM 68.0 °F - 64.0 °F 87% 29.95 in 10.0 mi SW 9.2 mph - N/A   Clear
9:53 AM 68.0 °F - 64.0 °F 87% 29.95 in 10.0 mi SW 11.5 mph - N/A   Clear
10:53 AM 69.1 °F - 64.0 °F 84% 29.93 in 10.0 mi SSW 10.4 mph - N/A   Clear
11:53 AM 80.1 °F 81.5 °F 63.0 °F 56% 29.91 in 10.0 mi SW 13.8 mph - N/A   Clear
12:53 PM 80.1 °F 80.9 °F 60.1 °F 50% 29.87 in 10.0 mi WSW 13.8 mph 20.7 mph N/A   Partly Cloudy
1:53 PM 78.1 °F - 61.0 °F 56% 29.86 in 10.0 mi West 8.1 mph - N/A   Overcast
2:43 PM 69.1 °F - 64.9 °F 87% 29.87 in 2.0 mi West 5.8 mph - 0.03 in Rain Rain
2:49 PM 69.8 °F - 64.4 °F 83% 29.87 in 2.5 mi WNW 6.9 mph - 0.04 in Rain Light Rain
2:53 PM 69.1 °F - 64.9 °F 87% 29.88 in 4.0 mi WNW 6.9 mph - 0.04 in Rain Light Rain
3:05 PM 69.1 °F - 64.9 °F 87% 29.87 in 6.0 mi West 11.5 mph 20.7 mph 0.00 in Rain Light Rain
3:26 PM 68.0 °F - 64.0 °F 87% 29.87 in 4.0 mi WNW 8.1 mph - 0.01 in Rain Light Rain
3:33 PM 66.9 °F - 64.0 °F 90% 29.88 in 5.0 mi WNW 9.2 mph - 0.02 in Rain Light Rain
3:51 PM 66.2 °F - 62.6 °F 88% 29.89 in 10.0 mi WNW 9.2 mph - 0.02 in   Overcast
3:53 PM 66.0 °F - 62.1 °F 87% 29.90 in 10.0 mi WNW 10.4 mph - 0.02 in   Overcast
4:53 PM 61.0 °F - 57.9 °F 90% 29.92 in 8.0 mi NW 11.5 mph 18.4 mph 0.04 in Rain Light Rain
5:16 PM 60.1 °F - 57.0 °F 90% 29.91 in 9.0 mi NNW 10.4 mph - 0.01 in Rain Light Rain
5:53 PM 55.9 °F - 53.1 °F 90% 29.96 in 9.0 mi NW 15.0 mph 25.3 mph 0.02 in Rain Light Rain
6:53 PM 53.1 °F - 48.9 °F 86% 30.01 in 10.0 mi NNW 12.7 mph 21.9 mph 0.00 in   Overcast
7:16 PM 51.1 °F - 46.0 °F 83% 30.02 in 10.0 mi NNW 16.1 mph 23.0 mph N/A   Overcast
7:53 PM 50.0 °F - 46.0 °F 86% 30.05 in 10.0 mi NNW 15.0 mph 21.9 mph N/A   Overcast
8:09 PM 50.0 °F - 46.0 °F 86% 30.05 in 10.0 mi NW 11.5 mph 21.9 mph N/A   Overcast
8:38 PM 50.0 °F - 46.0 °F 86% 30.06 in 10.0 mi NNW 12.7 mph 19.6 mph N/A   Overcast
8:53 PM 50.0 °F - 46.0 °F 86% 30.06 in 10.0 mi NNW 9.2 mph - N/A   Overcast
9:06 PM 50.0 °F - 46.0 °F 86% 30.07 in 10.0 mi NNW 10.4 mph 17.3 mph 0.00 in Rain Light Rain
9:42 PM 51.1 °F - 46.0 °F 83% 30.09 in 10.0 mi North 17.3 mph 27.6 mph 0.00 in   Overcast
9:53 PM 51.1 °F - 45.0 °F 80% 30.10 in 10.0 mi North 16.1 mph 25.3 mph 0.00 in   Overcast
10:53 PM 48.9 °F - 41.0 °F 74% 30.12 in 10.0 mi NNE 19.6 mph 27.6 mph N/A   Overcast
11:53 PM 46.9 °F - 35.1 °F 63% 30.14 in 10.0 mi North 17.3 mph - N/A   Overcast